Regional Weather Roundup
Issued by NWS

Home | Current Version | Previous Version | Graphics & Text | Print | Product List | Glossary Off
Versions: 1 2 3 4 5 6 7 8 9 10 11 12 13 14 15 16 17 18 19 20 21 22 23 24 25 26 27 28 29 30 31 32 33 34 35 36 37 38 39 40 41 42 43 44 45 46 47 48 49 50

000
ASUS43 KDMX 251403
RWRIA

WEATHER ROUNDUP FOR IOWA
NATIONAL WEATHER SERVICE DES MOINES IA
900 AM CDT SUN SEP 25 2016

NOTE: "FAIR" INDICATES FEW OR NO CLOUDS BELOW 12,000 FEET WITH NO
SIGNIFICANT WEATHER AND/OR OBSTRUCTIONS TO VISIBILITY.

* - THESE STATIONS ARE NOT NWS STATIONS...THUS NOT UNDER NWS
QUALITY CONTROL.  THEY ALSO DO NOT REPORT WEATHER SUCH
AS PRECIPITATION OR FOG.

IAZ001>003-012>014-020>022-031>034-043>046-251500-
   NORTHWEST IOWA

CITY           SKY/WX    TMP DP  RH WIND       PRES   REMARKS
CARROLL *      PTSUNNY   59  52  77 NW13      30.04S
CHEROKEE *     CLOUDY    56  51  82 W8        30.04S
DENISON *      CLOUDY    57  50  77 W8        30.06S
LE MARS *      SUNNY     57  48  72 W10       30.05S
ORANGE CITY *  SUNNY     55  50  82 W14       30.03S
SHELDON *      SUNNY     55  50  82 W12       30.00S
SIOUX CITY     SUNNY     57  49  74 W10       30.07R
SPENCER        CLOUDY    57  50  77 W12       30.01F
STORM LAKE *   MOSUNNY   55  50  82 W10       30.04S
$$

IAZ055>058-069>071-079>083-090>094-251500-
   SOUTHWEST IOWA

CITY           SKY/WX    TMP DP  RH WIND       PRES   REMARKS
ATLANTIC *     CLOUDY    59  52  77 NW7G16    30.08R
AUDUBON *      CLOUDY    59  54  82 W8        30.08R
CLARINDA *       N/A     61  54  77 MISG      30.12R
COUNCIL BLFS *   N/A     57  50  77 MISG      30.10S
CRESTON *      CLOUDY    63  55  77 NW16      30.08R
HARLAN  *      CLOUDY    57  52  82 NW8G15    30.12R
LAMONI         CLOUDY    67  65  93 W12       30.05R
RED OAK *      MOSUNNY   59  52  77 NW9       30.11R
SHENANDOAH *   CLOUDY    61  54  77 NW5       30.12R
$$

IAZ047>049-059>061-072>074-084-251500-
   CENTRAL IOWA

CITY           SKY/WX    TMP DP  RH WIND       PRES   REMARKS
AMES           CLOUDY    63  59  87 NW16      30.01R
ANKENY *         N/A    N/A N/A N/A MISG        N/A
BOONE *        CLOUDY    61  54  77 NW15G23   30.01R
CHARITON *       N/A     70  66  88 SW10      30.01R
DES MOINES     LGT RAIN  66  64  93 NW22      30.00R
GRINNELL*      PTSUNNY   69  66  92 SW8       30.00S
KNOXVILLE *    CLOUDY    70  66  88 SW8       29.99R
MARSHALLTOWN   CLOUDY    69  68  96 SW8       29.97F
NEWTON *       CLOUDY    68  68 100 SW7       29.98R
PELLA *        PTSUNNY   69  67  92 SW7       30.01R
PERRY *        CLOUDY    59  56  89 W9        30.04R
$$

IAZ004>006-015-016-023>025-035-036-251500-
   NORTH CENTRAL IOWA

CITY           SKY/WX    TMP DP  RH WIND       PRES   REMARKS
ALGONA *       CLOUDY    59  54  82 W10       30.01S
CLARION *      MOSUNNY   59  55  88 NW12      30.00S
ESTHERVILLE    MOSUNNY   55  51  86 W9        29.99F
FORT DODGE *   PTSUNNY   57  54  88 W9        30.03R
MASON CITY     LGT RAIN  63  61  93 W12       29.99R
FOREST CITY *  CLOUDY    59  59 100 NW9G20    29.99R
WEBSTER CITY * CLOUDY    59  57  94 NW14G21   29.98S
IOWA FALLS *   CLOUDY    67  64  90 W12       29.99S
$$

IAZ007>011-017>019-026>030-037>042-050>054-066-251500-
   NORTHEAST IOWA

CITY           SKY/WX    TMP DP  RH WIND       PRES   REMARKS
CEDAR RAPIDS   MOSUNNY   72  69  90 SW9       29.98S
CHARLES CITY * CLOUDY    68  68 100 SW8       29.97S
CLINTON *      MOSUNNY   71  67  87 SE10      30.00F
DECORAH *      CLOUDY    66  66 100 VRB5      29.96S FOG
DUBUQUE        MOSUNNY   69  66  90 S15       29.98F FOG
MONTICELLO *   SUNNY     72  66  83 S10       29.98S
OELWEIN *      MOSUNNY   70  68  94 S9        29.99S FOG
WATERLOO       CLOUDY    70  67  90 SW8       29.96S
$$

IAZ064-065-067-068-078-251500-
   EAST CENTRAL IOWA

CITY           SKY/WX    TMP DP  RH WIND       PRES   REMARKS
DAVENPORT      SUNNY     72  66  81 S10       29.99F
IOWA CITY      PTSUNNY   71  67  87 S5        30.00R
MT. PLEASANT * SUNNY     76  71  85 SW9       30.00S
MUSCATINE *    SUNNY     73  68  83 S6        29.99R
QUAD CITIES    SUNNY     73  66  78 SE6       29.98F
$$

IAZ062-063-075>077-085>089-095>099-251500-
   SOUTHEAST IOWA

CITY           SKY/WX    TMP DP  RH WIND       PRES   REMARKS
BURLINGTON     SUNNY     73  69  87 SW12      30.00S
FAIRFIELD *    MOSUNNY   73  66  78 SW8       30.00R
FORT MADISON *   N/A     73  68  83 S7        30.02R
KEOKUK *       SUNNY     75  70  83 SW12      30.01R
OSKALOOSA *    PTSUNNY   73  67  82 SW9       30.00S
CENTERVILLE *  PTSUNNY   72  66  83 SW8       30.04S
OTTUMWA        MOSUNNY   73  66  78 SW9       30.00S
WASHINGTON *     N/A    N/A N/A N/A MISG        N/A
$$

ABBREVIATIONS USED IN REMARKS
   TC - TEMPERATURES IN CELSIUS
  WCI - WIND CHILL INDEX
   HX - HEAT INDEX
  VSB - VISIBILITY
$$





USA.gov is the U.S. government's official web portal to all federal, state and local government web resources and services.